ECHOSTAR 18

Last updated on Sun Apr 12 2026 00:02:54 GMT+0000 (Coordinated Universal Time)

1 41592U 16039B 26100.79555483 -.00000281 00000+0 00000+0 0 9995 2 41592 0.0187 180.4125 0001457 217.5487 26.1022 1.00271562 35949
UTC large
Height (km)
Speed (km/s)
/
Latitude / Longitude
Inclination (degrees)
Orbital Period (minutes)
Azimuth
Elevation
Range (km)
Doppler Factor

Next 0 passes for location: London (51.5072 / 0.1276)

Sorry there are no passes over London.
ECHOSTAR 18